Zurück zum Katalog

SL-14 R/B

AktivPO
NORAD 19791·ROCKET BODY·🇷🇺 Russia

Gestartet Feb 10, 1989 von Plesetsk Cosmodrome

Loading…

Nächste Überflüge (nächste 24 Stunden)

TLE

AktuellSource: Space-Track

Epoche: Sep 14, 2026, 23:17 UTC

1 19791U 89009G   26257.97063858 -.00000011  00000-0 -13146-3 0  9993
2 19791  82.6084  75.9016 0035644  99.8430  67.3296 12.54882416721813

Verfolge SL-14 R/B in Echtzeit mit AllMySat

Download on the App Store